Flag for Canada Weather past 2 weeks in Creston, British Columbia, Canada

Now
57 °F

Cool.


Feels Like: 55 °F
Forecast: 53 / 63 °F
Wind: 8 mph from South

Location: Creston

Current Time: Jul 24, 2014 at 9:04:35 AM

Latest Report: Jul 24, 2014 at 8:00 AM


Visibility: N/A

Pressure: 30.06 "Hg

Humidity: 66%

Dew point: 46 °F

Location of CrestonLocation

Historic Weather in Creston — Graph

°F

Creston temperature yesterday

Maximum temperature yesterday: 85 °F (at 4:00 PM)
Minimum temperature yesterday: 56 °F (at 6:00 AM)
Average temperature yesterday: 67 °F

Past Weeks' High & Low Weather Summary

 TemperatureHumidityPressure
High95 °F (Jul 13, 6:00 PM)89% (Jul 23, 6:00 AM)30.18 "Hg (Jul 23, 6:00 AM)
Low55 °F (Jul 24, 6:00 AM)18% (Jul 9, 8:00 PM)29.67 "Hg (Jul 17, 7:00 PM)
Average73 °F49%29.92 "Hg
* Reported Jul 9 7:00 AM — Jul 24 7:00 AM, Creston, Weather by CustomWeather, © 2014

Note: Actual official high and low records may vary slightly from our data, if they occured in-between our weather recording intervals... More about our weather records

Advertising

Creston weather history for July 14, 2014

 ConditionsComfort  
Time TempWeatherWind HumidityBarometerVisibility
12:00 AM
Jul 14
76 °FMild.5 mph34%30.03 "HgN/A
1:00 AM72 °FMild.2 mph43%30.04 "HgN/A
2:00 AM72 °FMild.2 mph39%30.05 "HgN/A
3:00 AM72 °FMild.1 mph44%30.06 "HgN/A
4:00 AM68 °FMild.2 mph50%30.07 "HgN/A
5:00 AM67 °FMild.3 mph51%30.08 "HgN/A
6:00 AM67 °FMild.2 mph52%30.07 "HgN/A
7:00 AM69 °FMild.No wind55%30.08 "HgN/A
8:00 AM68 °FMild.1 mph61%30.09 "HgN/A
9:00 AM72 °FMild.1 mph54%30.10 "HgN/A
10:00 AM69 °FMild.2 mph65%30.11 "HgN/A
11:00 AM68 °FMild.5 mph73%30.11 "HgN/A
12:00 PM69 °FMild.1 mph73%30.13 "HgN/A
1:00 PM67 °FMild.6 mph88%30.14 "HgN/A
2:00 PM70 °FMild.5 mph77%30.14 "HgN/A
3:00 PM69 °FMild.14 mph70%30.14 "HgN/A
4:00 PM69 °FMild.7 mph81%30.12 "HgN/A
5:00 PM71 °FMild.13 mph71%30.09 "HgN/A
6:00 PM75 °FMild.13 mph58%30.07 "HgN/A
7:00 PM73 °FMild.15 mph60%30.06 "HgN/A
8:00 PM71 °FMild.6 mph66%30.06 "HgN/A
9:00 PM68 °FMild.3 mph75%30.06 "HgN/A
10:00 PM67 °FMild.5 mph75%30.08 "HgN/A
11:00 PM66 °FMild.2 mph75%30.08 "HgN/A
Weather by CustomWeather, © 2014

See weather overviewHow to use our weather pages